Home   Weather   Tours   Past weeks

Flag for France Past Weather in Tours, Centre-Val de Loire, France — Yesterday and Last 2 Weeks

Now
36 °F

Clear.


Feels Like: 33 °F
Forecast: 34 / 53 °F
Wind: 3 mph from North

Location: Tours Airport

Current Time: Apr 27, 2017 at 1:42:43 am

Latest Report: Apr 27, 2017 at 1:00 am


Visibility: 10 mi

Pressure: 30.07 "Hg

Humidity: 93%

Dew Point: 34 °F

Location of ToursLocation

Past Weather in Tours — Graph

°F

Tours Temperature Yesterday

Maximum temperature yesterday: 52 °F (at 1:30 pm)
Minimum temperature yesterday: 37 °F (at 3:30 am)
Average temperature yesterday: 43 °F

High & Low Weather Summary for the Past Weeks

 TemperatureHumidityPressure
High66 °F (Apr 12, 3:00 pm)100% (Apr 13, 7:00 am)30.57 "Hg (Apr 13, 7:00 am)
Low32 °F (Apr 20, 5:30 am)24% (Apr 21, 6:30 pm)29.83 "Hg (Apr 25, 7:00 pm)
Average50 °F64%30.21 "Hg
* Reported Apr 12 12:00 am — Apr 27 12:00 am, Tours, Weather by CustomWeather, © 2017

Note: Actual official high and low records may vary slightly from our data, if they occured in-between our weather recording intervals... More about our weather records

Advertising

Tours Weather History for the Previous 24 Hours

Scroll right to see more
 ConditionsComfort  
Time TempWeatherWind HumidityBarometerVisibility
12:00 am
Thu, Apr 27
36 °FClear.2 mph93%30.07 "Hg10 mi
11:30 pm
Wed, Apr 26
37 °FClear.3 mph87%30.07 "Hg10 mi
11:00 pm37 °FPassing clouds.5 mph93%30.07 "HgN/A
10:30 pm39 °FClear.5 mph87%30.07 "Hg10 mi
10:00 pm39 °FClear.3 mph87%30.04 "Hg10 mi
9:30 pm39 °FOvercast.5 mph87%30.04 "HgN/A
8:30 pm39 °FScattered clouds.13 mph87%30.04 "HgN/A
8:00 pm45 °FBroken clouds.9 mph71%30.01 "HgN/A
7:30 pm46 °FPassing clouds.7 mph66%30.01 "HgN/A
7:00 pm46 °FPassing clouds.5 mph66%29.98 "HgN/A
6:30 pm45 °FMostly cloudy.8 mph76%30.01 "HgN/A
6:00 pm39 °FLight rain. Fog.13 mph87%30.01 "Hg3 mi
5:30 pm45 °FLight rain. Broken clouds.15 mph66%29.98 "HgN/A
5:00 pm52 °FCool.8 mph47%29.98 "HgN/A
4:30 pm52 °FCool.12 mph44%29.98 "HgN/A
4:00 pm50 °FCool.9 mph50%29.98 "HgN/A
3:30 pm46 °FBroken clouds.15 mph53%29.98 "HgN/A
3:00 pm50 °FPassing clouds.15 mph47%29.98 "HgN/A
2:00 pm48 °FPassing clouds.10 mph46%29.95 "HgN/A
1:30 pm52 °FSunny.7 mph41%29.95 "Hg10 mi
1:00 pm50 °FPassing clouds.7 mph37%29.98 "HgN/A
12:30 pm50 °FPassing clouds.7 mph40%29.98 "HgN/A
12:00 pm50 °FPassing clouds.6 mph43%29.98 "HgN/A
11:30 am48 °FPassing clouds.5 mph43%29.98 "HgN/A
11:00 am43 °FPassing clouds.6 mph57%29.98 "HgN/A
10:30 am41 °FSunny.14 mph66%29.98 "Hg10 mi
10:00 am45 °FOvercast.7 mph61%29.95 "HgN/A
9:30 am41 °FBroken clouds.6 mph70%29.95 "HgN/A
9:00 am39 °FLight rain. Mostly cloudy.12 mph70%29.95 "HgN/A
8:30 am39 °FPartly sunny.6 mph70%29.92 "HgN/A
8:00 am41 °FPassing clouds.7 mph61%29.92 "HgN/A
7:30 am37 °FPassing clouds.7 mph70%29.92 "HgN/A
7:00 am37 °FSunny.6 mph70%29.89 "Hg10 mi
6:30 am37 °FPassing clouds.6 mph70%29.89 "HgN/A
6:00 am37 °FPassing clouds.5 mph70%29.89 "HgN/A
5:30 am37 °FClear.6 mph70%29.89 "Hg10 mi
5:00 am37 °FClear.7 mph75%29.89 "Hg10 mi
4:30 am37 °FClear.5 mph75%29.89 "Hg10 mi
4:00 am37 °FClear.6 mph75%29.89 "Hg10 mi
3:30 am37 °FClear.6 mph81%29.89 "Hg10 mi
3:00 am39 °FClear.5 mph75%29.89 "Hg10 mi
2:30 am39 °FPassing clouds.5 mph75%29.89 "HgN/A
2:00 am41 °FClear.7 mph70%29.89 "Hg10 mi
1:30 am41 °FClear.6 mph76%29.89 "Hg10 mi
1:00 am43 °FClear.5 mph71%29.89 "Hg10 mi
Weather by CustomWeather, © 2017

See weather overviewHow to use our weather pages